sat.trackr.live / text

‹ back to catalog

STARLINK-32515

NORAD 61705 · 2024-195U

PAYLOAD ACTIVE UNKNOWN

§ Identity

Operator
Country
US
Launch date
2024-10-30
Launch site
AFWTR
Launch vehicle
Mass (kg)
RCS (m²)

Purposes: comms

External: N2YO · Heavens-Above · Gunter

§ Orbital elements

Epoch: 2026-05-25T00:26:14.703072Z

Period
94.11 min
Inclination
53.1589°
Eccentricity
0.0001164
Mean motion
15.30189479 rev/d
Perigee alt
474.4 km
Apogee alt
476.0 km
Semi-major
6,853.4 km
B*
2.3583e-5
RAAN
161.1054°
Arg perigee
89.7774°
Mean anomaly
270.3360°
Rev number
8,886

§ Raw data

STARLINK-325151 61705U 24195U   26145.01822573  .00000339  00000+0  23583-4 0  99952 61705  53.1589 161.1054 0001164  89.7774 270.3360 15.30189479 88862

JSON: /api/v1/satellites/61705 · /tle

For live sub-satellite position, see the globe view (requires WebGL).

§ Visibility from observer

Set your observer location to see the next 7 days of passes ≥ 10°. The values pass through the URL so the page stays shareable.

No JS? Fill the form by hand. The geolocation button needs JavaScript.